Regional Weather Roundup
Issued by NWS

Home | Current Version | Previous Version | Graphics & Text | Print | Product List | Glossary On
Versions: 1 2 3 4 5 6 7 8 9 10 11 12 13 14 15 16 17 18 19 20 21 22 23 24 25 26 27 28 29 30 31 32 33 34 35 36 37 38 39 40 41 42 43 44 45 46 47 48 49 50
000
ASUS43 KOAX 261410
RWRNE

WEATHER ROUNDUP FOR NEBRASKA
NATIONAL WEATHER SERVICE OMAHA NE
800 AM CST MON JAN 26 2015

NOTES: SATELLITE DATA IS BEING USED TO AUGMENT CLOUD COVER ABOVE
       12000 FEET.
       "FAIR" INDICATES FEW OR NO CLOUDS BELOW 12,000 FEET WITH NO
       SIGNIFICANT WEATHER AND/OR OBSTRUCTIONS TO VISIBILITY.

  * THESE STATIONS DO NOT REPORT WEATHER SUCH AS RAIN...SNOW OR FOG.

NEZ001>004-019>022-054>056-261500-
NEBRASKA PANHANDLE

CITY           SKY/WX    TMP DP  RH WIND       PRES   REMARKS
SCOTTSBLUFF    CLEAR     34  29  82 NW8       30.14R WCI  27
ALLIANCE       CLEAR     35  29  78 W10       30.09R WCI  27
CHADRON        CLEAR     37  29  72 W12       30.08R WCI  29
KIMBALL        PTCLDY    44  28  54 W20       30.16R
SIDNEY         CLEAR     39  28  64 W13       30.15R WCI  31
$$

NEZ057>060-069>072-079>082-261500-
SOUTHWEST NEBRASKA

CITY           SKY/WX    TMP DP  RH WIND       PRES   REMARKS
NORTH PLATTE   CLEAR     28  25  88 NW8       30.05R WCI  20
IMPERIAL       CLEAR     39  29  67 W14       30.10R WCI  31
LEXINGTON      CLEAR     36  31  84 NW14      30.01R WCI  27
MCCOOK         CLEAR     39  30  70 W15       30.06R WCI  31
OGALLALA       CLEAR     43  31  63 W9        30.09R
$$

NEZ005>010-023>029-035>040-094-261500-
NORTH CENTRAL NEBRASKA

CITY           SKY/WX    TMP DP  RH WIND       PRES   REMARKS
VALENTINE      CLEAR     35  30  82 W7        29.99R WCI  29
AINSWORTH      CLEAR     40  31  71 W8        29.97R WCI  34
BROKEN BOW     CLEAR     44  32  62 NW21      29.97R
O`NEILL        CLEAR     44  35  72 NW14      29.91R
ORD            CLEAR     43  32  65 W16       29.93R
THEDFORD       CLEAR     39  32  75 W8        30.02R WCI  34
$$

NEZ041-046>049-061>064-073>077-083>087-261500-
SOUTH CENTRAL NEBRASKA

CITY           SKY/WX    TMP DP  RH WIND       PRES   REMARKS
GRAND ISLAND   CLEAR     34  29  82 W10       29.95R WCI  26
AURORA         CLEAR     39  32  76 NW12      29.92R WCI  32
HASTINGS       CLEAR     35  29  78 W14       29.95R WCI  26
HEBRON         CLEAR     31  26  80 W8        29.95S WCI  24
HOLDREGE       CLEAR     42  31  65 W12       29.99S
KEARNEY *      CLEAR     39  30  70 W12       29.97R WCI  32
YORK           CLEAR     36  32  87 NW15      29.91S WCI  26
$$

NEZ011>018-030>034-042>045-261500-
NORTHEAST NEBRASKA

CITY           SKY/WX    TMP DP  RH WIND       PRES   REMARKS
NORFOLK        CLEAR     39  33  79 NW12      29.87R WCI  32
ALBION         CLEAR     40  32  74 NW14      29.90R WCI  32
BLAIR          CLEAR     32  28  86 SW9       29.86S WCI  24
COLUMBUS *     CLEAR     32  25  74 W6        29.90R WCI  26
FREMONT        CLEAR     33  28  84 W5        29.88R WCI  28
TEKAMAH        CLEAR     32  28  85 SW12      29.86S WCI  23
WAYNE          CLEAR     37  32  83 NW12      29.86S WCI  29
$$

NEZ050>053-065>068-078-088>093-261500-
SOUTHEAST NEBRASKA

CITY           SKY/WX    TMP DP  RH WIND       PRES   REMARKS
LINCOLN        CLEAR     33  27  78 W5        29.92S WCI  29
OMAHA EPPLEY   PTCLDY    28  26  92 SE7       29.88F WCI  21
BEATRICE       CLEAR     30  27  89 SW7       29.93S WCI  23
FALLS CITY     CLEAR     25  23  92 SE3       29.93F
NEBRASKA CITY  CLEAR     32  29  91 SW15      29.88F WCI  21
PLATTSMOUTH    CLEAR     30  27  88 SW9       29.89S WCI  22
$$

NEZ044-045-051>053-067-261500-
OMAHA AREA

CITY           SKY/WX    TMP DP  RH WIND       PRES   REMARKS
OMAHA EPPLEY   PTCLDY    28  26  92 SE7       29.88F WCI  21
BLAIR          CLEAR     32  28  86 SW9       29.86S WCI  24
FREMONT        CLEAR     33  28  84 W5        29.88R WCI  28
MILLARD        CLEAR     32  29  87 W3        29.88S
OFFUTT AFB     CLEAR     26  24  93 S5        29.88F WCI  20
PLATTSMOUTH    CLEAR     30  27  88 SW9       29.89S WCI  22
WAHOO          FAIR      32  27  81 SW6       29.88S WCI  26
$$



USA.gov is the U.S. government's official web portal to all federal, state and local government web resources and services.